Theta_e
293 293 292 292 293 293 292 293 293 294 295 295 296 296 296 296 297 295 294 294 293 292 292 292 291 294 294 295 297 298 297 297 288 285 288 287 286 286 284 285 285 283 284
291 291 290 291 291 290 290 291 291 291 292 291 292 291 291 292 292 291 290 291 290 289 289 289 289 291 290 291 292 292 293 294 290 285 285 285 285 286 285 284 285 284 282
289 289 288 288 288 288 289 289 290 290 290 290 290 289 288 289 289 289 288 288 287 287 287 286 286 288 286 288 288 288 288 290 290 287 284 284 283 282 281 282 281 281 283
288 287 286 287 287 287 288 288 288 288 288 288 288 288 288 288 288 287 287 286 286 285 285 285 285 285 284 285 285 286 286 286 285 284 281 280 280 280 280 279 279 280 279
286 285 285 286 286 286 286 286 287 287 287 287 287 287 288 288 287 286 286 285 285 284 284 284 284 285 286 286 283 283 283 283 282 281 280 279 279 279 279 278 278 278 278
284 284 284 284 284 284 284 285 285 285 285 285 285 285 285 286 287 287 285 283 282 281 280 281 282 283 285 286 286 286 284 281 281 280 280 278 277 278 278 277 277 275 274
283 283 283 283 283 283 283 283 283 283 283 283 283 283 283 283 285 284 283 281 280 280 279 279 279 280 281 280 282 282 282 284 283 280 278 277 277 277 276 276 276 275 274
282 282 282 282 282 282 282 282 282 282 282 282 282 282 282 283 285 284 283 281 280 280 280 280 279 280 280 279 278 278 277 278 278 278 277 276 276 277 276 276 275 274 274
281 281 282 282 281 281 280 280 280 280 280 280 281 281 281 282 285 284 281 280 279 279 280 280 280 279 283 283 279 278 276 276 280 281 281 280 280 280 279 276 270 268 266
280 280 281 281 280 280 280 280 280 280 280 281 281 280 280 280 285 285 282 281 279 280 280 281 281 280 282 282 278 279 276 276 277 277 277 278 277 276 277 276 274 267 267
280 280 280 280 280 280 279 279 279 279 279 279 279 279 280 280 282 285 284 281 281 280 280 279 280 282 282 282 281 278 277 278 276 274 274 274 275 275 274 275 275 272 267
278 278 278 278 280 280 278 278 279 278 277 277 277 277 277 279 282 284 284 283 282 280 279 279 279 281 281 281 280 281 281 278 271 269 269 271 272 272 273 272 271 271 273
275 275 275 276 278 279 278 278 277 277 276 275 277 275 275 277 277 282 283 283 282 279 279 280 281 281 281 280 281 281 275 271 270 268 269 271 272 272 270 268 268 266 266
271 272 274 275 275 275 278 277 276 275 275 276 276 274 273 274 275 276 278 277 279 279 279 276 278 279 279 278 274 276 274 273 271 269 269 269 269 269 273 274 274 270 266
272 273 274 274 272 273 275 274 276 275 276 273 272 274 271 272 277 283 283 282 279 278 270 272 275 277 276 275 273 271 273 273 271 270 274 275 275 275 274 272 273 270 268
271 272 272 273 272 273 273 274 281 281 281 282 282 279 281 283 284 285 285 285 285 284 278 278 278 277 277 276 276 276 276 276 276 275 274 273 270 272 271 267 265 262 267
268 271 270 271 272 272 271 270 269 275 282 282 283 282 283 282 283 283 283 283 283 284 280 279 279 276 276 276 276 275 274 274 274 273 272 272 272 269 268 263 264 263 264
264 266 268 269 269 269 269 269 269 272 271 276 280 279 280 280 281 281 280 279 273 275 274 272 271 271 271 270 271 270 270 268 268 268 267 267 267 265 263 261 261 262 262
264 264 264 265 266 265 266 271 274 274 275 275 276 276 275 279 280 277 275 269 266 268 269 268 268 268 268 267 267 267 266 267 267 265 263 263 264 264 262 263 264 261 263
263 266 264 263 266 270 273 273 272 273 273 273 270 270 270 268 267 266 266 265 264 264 264 264 264 265 265 265 264 264 263 261 262 261 260 260 262 261 262 262 261 262 259
263 263 265 265 265 268 270 270 271 271 269 267 266 269 273 265 264 264 263 262 262 262 262 261 261 262 261 261 260 260 259 261 261 262 260 260 259 259 259 261 261 258 257
265 265 262 263 262 263 265 265 265 263 263 262 262 264 269 262 262 261 260 260 259 257 256 255 256 256 257 257 258 258 258 259 259 259 259 258 257 258 256 257 257 256 255
263 262 262 263 264 263 263 261 261 262 262 261 260 259 258 258 258 258 258 257 257 258 257 255 255 259 260 261 261 260 260 260 260 257 256 255 256 256 256 257 258 258 255
261 261 261 260 261 261 261 261 261 260 260 260 259 259 259 257 259 259 258 258 258 259 259 259 259 259 260 260 259 262 263 263 262 261 260 258 257 258 258 257 259 259 260
259 260 260 260 260 261 261 261 261 261 261 262 261 261 261 261 262 261 261 261 260 261 261 261 260 258 258 259 259 258 261 265 266 265 261 261 259 259 259 259 258 258 255
258 258 258 258 258 257 258 259 259 260 260 260 260 260 260 259 258 259 257 258 258 258 259 259 258 258 258 257 257 261 264 267 268 266 260 259 258 259 259 260 260 259 258
Wind_Speed
10 10 11 10 10 10 9 9 7 9 8 10 10 8 8 9 9 10 10 9 10 10 9 8 9 6 5 4 5 6 6 4 7 4 3 3 3 4 2 2 4 4 3
11 12 12 11 11 12 12 11 10 10 10 11 10 11 10 12 11 10 12 9 10 11 10 11 9 6 10 6 5 7 5 5 4 6 2 2 2 2 3 3 2 2 2
11 12 13 13 12 11 10 11 11 11 10 12 13 12 13 14 11 12 12 12 12 11 9 10 8 9 8 5 6 6 4 4 3 4 4 2 2 0 1 0 1 2 2
11 12 13 12 11 11 11 12 13 12 12 13 13 13 13 12 11 11 13 11 11 12 10 9 8 9 7 6 4 4 5 7 5 6 4 3 3 1 1 1 1 1 2
12 13 13 12 11 12 11 13 12 12 12 11 13 12 12 11 7 10 11 11 11 11 11 9 9 10 16 11 5 5 6 5 4 5 3 3 3 2 1 0 1 2 1
14 13 12 12 12 12 12 12 11 12 12 12 13 12 12 9 18 19 13 10 10 9 8 8 8 10 16 20 20 20 10 4 4 3 2 3 2 2 1 1 0 2 3
14 11 12 11 12 12 11 11 12 12 12 13 13 12 12 11 17 17 15 8 8 8 7 6 7 6 7 7 15 18 16 18 13 4 4 3 3 1 1 1 1 0 2
12 13 13 12 12 10 12 11 10 9 11 11 11 9 10 10 16 16 15 9 9 8 7 7 7 6 7 6 8 9 8 8 8 5 5 4 4 3 3 2 1 1 3
13 13 11 8 10 11 12 9 8 9 9 9 6 8 8 8 15 13 9 7 8 7 6 6 6 6 9 9 6 6 6 5 7 10 9 7 5 3 3 2 3 4 3
10 9 9 8 9 10 8 8 6 6 8 6 8 7 9 7 13 12 8 4 6 4 5 5 10 6 10 9 5 4 4 3 3 2 2 2 3 2 1 0 1 2 1
8 8 8 8 8 7 6 5 6 6 6 6 7 6 7 8 8 13 11 4 3 3 3 2 3 8 8 8 8 4 3 3 2 1 1 2 1 1 0 1 2 3 3
7 7 7 6 6 5 6 4 4 4 5 4 4 4 4 5 10 11 11 10 7 3 3 1 1 3 3 3 4 4 4 3 1 1 1 2 1 1 1 1 2 2 3
6 7 6 6 6 5 5 5 4 4 3 3 3 3 3 3 4 9 8 8 8 3 1 3 3 3 4 4 3 3 3 1 1 1 1 1 1 2 1 2 3 2 4
5 5 4 5 5 5 3 3 3 3 3 3 3 2 1 2 2 2 2 3 5 3 3 3 4 5 6 5 3 3 1 0 1 1 2 2 2 1 2 2 2 2 2
5 5 5 4 4 4 3 1 2 1 2 1 1 1 2 2 1 3 3 2 1 1 3 3 2 1 1 3 3 2 2 1 1 2 2 4 3 4 4 2 2 2 4
6 6 5 4 4 3 3 4 2 2 3 2 3 2 1 3 6 8 8 7 6 2 1 2 2 1 2 1 1 2 2 3 2 3 4 4 4 5 4 2 1 2 5
6 6 4 5 4 4 3 3 3 5 6 8 9 8 11 10 10 9 8 8 7 7 1 2 2 2 1 2 2 2 2 3 4 3 2 3 3 2 4 3 2 2 2
5 6 4 4 4 4 4 3 3 3 3 3 7 8 11 12 10 11 14 8 5 7 6 5 5 5 5 5 5 5 5 4 3 3 4 4 3 2 3 3 2 3 3
4 2 3 3 2 2 3 5 5 5 5 4 3 8 12 14 14 17 17 6 4 6 6 6 5 6 6 5 5 5 5 5 5 4 3 3 3 4 4 3 5 5 5
5 5 4 2 3 4 5 5 4 3 2 5 6 5 6 6 7 7 7 7 6 5 5 6 6 6 6 6 6 5 4 4 4 3 3 3 3 2 4 4 3 5 4
4 4 5 3 4 4 4 4 4 5 6 6 5 6 15 6 6 6 6 5 5 5 5 5 5 5 5 5 4 5 4 5 4 4 3 3 3 4 3 4 4 4 3
4 3 4 4 3 5 5 5 5 5 5 5 4 8 15 6 6 5 5 5 4 3 2 3 3 3 3 3 4 4 4 5 4 3 3 3 3 3 3 3 3 3 3
2 3 3 4 5 6 6 6 6 5 6 5 5 4 4 4 4 4 4 4 4 4 4 3 3 4 4 4 4 4 4 5 5 3 4 4 4 4 4 4 4 5 3
5 6 5 5 5 5 5 6 5 7 6 5 5 5 4 3 4 4 3 4 4 4 4 4 3 5 5 5 4 4 5 6 5 6 7 5 5 5 4 4 5 6 6
5 5 6 5 6 6 6 6 6 5 5 5 4 4 3 4 5 5 5 5 5 5 5 5 4 5 6 9 8 9 10 12 10 8 4 6 6 7 6 5 5 5 4
4 5 4 3 4 3 3 4 4 4 4 4 4 4 4 4 4 4 4 6 6 6 7 5 6 9 9 7 8 11 11 14 12 1 2 3 4 5 4 5 7 4 6
Wind_Direction
70 68 64 56 54 58 59 46 40 42 37 43 39 42 40 46 66 75 57 48 84 84 75 77 73 63 57 28 66 50 24 34 96 83 83 103 137 144 149 217 177 197 220
71 72 68 63 58 54 52 44 42 48 44 54 52 54 47 54 54 69 81 65 78 80 85 78 68 75 58 33 40 73 69 49 105 116 103 112 78 171 195 184 209 212 205
75 77 72 65 63 59 62 58 48 54 51 57 57 56 56 54 58 68 75 75 65 66 76 85 72 82 78 60 62 65 53 73 67 121 115 112 107 120 89 337 255 270 261
67 72 72 66 65 61 59 62 58 52 52 54 53 54 59 61 60 66 76 81 78 64 61 63 70 68 86 84 89 86 69 72 69 83 79 107 109 83 99 139 238 245 276
64 63 61 63 62 62 57 60 60 56 57 55 60 57 62 63 62 65 69 71 73 73 65 63 70 73 72 66 70 56 75 85 97 110 120 112 109 133 149 51 291 289 330
60 56 59 60 61 59 56 55 63 64 61 60 61 62 64 65 70 73 71 70 72 71 72 61 58 60 69 73 71 67 63 91 100 98 87 97 101 125 136 142 186 24 334
51 47 55 57 57 57 58 55 52 59 63 61 60 60 62 66 73 77 75 77 77 78 81 75 66 51 59 72 72 68 57 61 59 96 105 99 124 132 170 97 67 274 274
46 49 45 44 52 48 61 51 52 52 59 62 59 57 70 69 70 70 72 69 65 58 60 70 78 66 65 71 74 70 59 54 44 53 75 85 90 97 82 112 119 320 292
38 39 41 38 54 52 51 50 41 58 59 62 57 62 65 63 70 75 72 69 77 70 59 61 74 67 65 89 95 98 87 71 65 73 81 88 85 87 89 82 25 56 324
35 37 38 38 55 59 55 54 54 56 62 59 62 43 51 57 61 68 71 71 78 74 58 62 74 69 65 63 72 104 105 80 72 48 42 60 59 28 16 109 158 137 211
22 30 37 39 51 58 65 49 50 54 56 48 58 42 48 41 41 52 62 63 83 81 74 64 54 67 64 63 72 78 100 117 46 56 3 345 315 283 230 239 239 163 185
26 37 35 30 34 41 56 49 50 63 64 48 60 56 34 38 50 50 58 59 62 83 81 85 61 64 48 46 63 60 83 87 81 25 17 319 261 256 280 240 269 257 243
27 24 21 27 32 26 40 32 31 41 63 41 54 48 23 7 27 42 45 53 55 71 80 68 45 12 6 13 347 323 89 79 51 4 282 263 225 198 186 324 294 284 261
24 11 2 27 12 13 18 33 46 43 36 39 40 49 37 62 29 0 24 23 18 37 24 15 356 350 337 322 338 349 30 234 195 263 269 270 291 301 262 208 258 243 203
0 5 14 5 11 0 353 352 27 21 88 94 89 96 67 18 308 359 5 14 347 52 38 14 350 350 338 335 330 290 275 273 308 275 299 312 316 316 304 277 264 283 249
3 4 354 351 344 354 6 346 1 39 7 18 10 23 325 320 340 340 334 322 317 282 146 265 274 285 279 286 324 336 341 335 327 357 355 331 305 306 303 313 304 256 282
1 346 343 350 357 1 2 21 11 340 36 56 51 47 36 20 8 2 356 344 337 328 253 258 357 37 18 340 346 334 341 8 351 341 280 277 304 326 324 301 296 292 295
350 353 359 341 352 2 3 354 9 19 8 355 33 54 26 10 12 20 10 31 20 25 37 25 22 15 19 11 6 4 0 356 359 353 336 324 330 313 315 307 296 291 287
341 4 349 330 357 356 7 16 18 16 15 14 12 35 12 3 41 38 35 41 25 29 22 20 20 16 13 8 2 353 349 339 336 335 335 354 346 331 311 311 316 303 307
344 349 354 337 6 31 38 42 37 26 17 49 46 8 10 25 35 31 38 35 31 22 12 9 7 5 7 1 353 341 340 348 347 338 336 330 310 326 317 309 305 314 296
332 346 9 18 33 25 39 40 33 50 51 61 41 360 40 47 38 36 32 28 24 15 11 5 353 353 355 348 344 343 341 335 327 312 307 311 317 307 278 288 287 267 274
336 8 14 27 26 33 26 25 37 43 39 44 33 25 42 41 38 32 27 17 1 353 358 3 338 327 319 322 320 317 313 308 304 309 309 302 298 295 288 283 290 287 286
81 75 55 38 43 46 51 41 41 41 45 40 36 27 20 26 24 23 15 358 353 344 335 340 321 320 314 310 297 275 281 285 277 259 277 282 287 292 292 292 289 296 289
30 37 41 39 48 51 56 51 48 45 41 34 30 24 22 12 13 14 0 347 345 332 329 322 310 308 311 307 292 283 269 266 255 250 243 251 264 274 272 266 275 276 282
45 48 50 48 48 48 53 48 46 43 43 42 34 27 20 22 20 21 1 354 342 335 328 323 314 313 317 319 316 313 302 301 292 263 227 231 242 257 261 261 263 274 270
53 56 54 51 50 38 36 48 42 41 40 33 22 15 14 9 355 348 357 343 336 325 322 315 310 313 316 307 303 311 313 319 306 233 223 216 236 261 264 266 272 266 269